www.pogodaiklimat.ru

Погода и климат >> Архив погоды >> Канада >> Dubawnt Lake


ПОГОДА в Dubawnt Lake

  • Прогноз погоды в Dubawnt Lake
  • Монитор погоды в Dubawnt Lake
  • Климат города

АРХИВ ПОГОДЫ в Dubawnt Lake

Время (UTC), дата Ветер
(напр.,м/с)
 
Видим.   Явления Облачность Т
(С)
Тd
(С)
f
(%)
Тe
(С)
Тes
(С)
Комфортность P
(гПа)
Po
(гПа)
Тmin
(С)
Tmax
(С)
R
(мм)
R24
(мм)
S
(см)
06 17.05 В 1 16 км 9/9 1000 м
[]
-1.5 -3.9 84 -2 -2 1019.6 956.7 -2.0 +8.3 17
09 17.05 штиль 0 16 км 9/9 1000 м
[]
-3.6 -4.2 96 -5 -5 1021.1 958.0
12 17.05 В 2 16 км ясно -1.4 -4.7 78 -5 -4 1022.3 959.3 -3.6 +8.3
15 17.05 В 2 16 км ясно +4.5 -5.5 48 +3 +10 1023.2 960.2
18 17.05 С 3 16 км ясно +8.6 -4.1 40 +7 +17 опасность
простуды
1023.6 960.6 -3.6 +8.8
21 17.05 С 3 16 км ясно +11.6 -4.9 31 +10 +19 1023.1 960.2
00 18.05 СЗ 2 16 км ясно +12.2 -9.8 20 +12 +15 1022.8 960.1 -3.6 +12.8
03 18.05 ЮВ 1 16 км ясно +8.3 -4.3 41 +9 +9 1022.6 960.0
06 18.05 ЮВ 1 16 км ясно -0.4 -4.4 74 -2 -2 1023.5 960.6 -3.6 +12.8
09 18.05 В 1 16 км ясно -2.6 -4.4 87 -3 -3 1023.5 960.6
12 18.05 Ю 2 16 км ясно +0.6 -2.4 80 -2 -1 1023.4 960.7 -3.1 +12.8
15 18.05 З 3 16 км ясно +12.2 -2.4 36 +11 +17 1022.9 960.7
18 18.05 З 3 16 км ясно +15.6 -4.9 24 +15 +25 1022.4 959.9 -3.1 +16.4
21 18.05 ЮЗ 4 16 км 3/0
[]
+17.0 -4.3 23 +17 +23 1021.7 959.2
00 19.05 ЮЗ 5 16 км ясно +16.8 -6.8 19 +16 +18 1021.1 958.8 -3.1 +17.7
03 19.05 ЮЗ 2 16 км ясно +12.7 -3.8 31 +12 +13 1020.2 958.4
06 19.05 Ю 2 16 км ясно +4.9 -2.2 60 +3 +3 1020.2 958.2 -3.1 +17.7 23
09 19.05 Ю 4 16 км 3/0 2000 м
[]
+5.5 -2.6 56 +2 +2 1019.7 957.8
12 19.05 Ю 4 16 км 10/0 2000 м
[]
+6.9 -2.0 53 +4 +4 1018.9 957.1 +4.3 +17.7
15 19.05 ЮЗ 5 16 км 10/0
[]
+13.5 -1.3 36 +12 +14 1017.8 956.2
18 19.05 З 4 16 км слаб. дождь 10/10 1500 м
[]
+11.9 +3.5 56 +10 +10 1017.7 955.6 +4.3 +15.3
21 19.05 ЮЗ 7 16 км ясно +17.3 +2.5 37 +16 +19 1015.6 954.0
00 20.05 З 4 16 км 10/0 2000 м
[]
+15.6 +3.3 44 +15 +16 1015.1 953.5 +4.5 +19.5
03 20.05 Ю 2 16 км 10/0 2000 м
[]
+11.1 +6.9 75 +10 +10 1015.6 954.1
06 20.05 Ю 2 16 км 9/0 2000 м
[]
+8.8 +6.4 85 +7 +7 1016.2 954.4 +4.5 +19.5 1
09 20.05 Ю 2 16 км ясно +5.1 +4.1 93 +2 +2 1015.8 954.1
12 20.05 ЮЗ 2 16 км 10/0
[]
+6.7 +5.2 90 +5 +6 1016.4 954.7 +2.3 +19.5
15 20.05 ЮЗ 3 16 км ясно +14.5 +6.1 57 +14 +20 1016.3 954.8
18 20.05 З 4 16 км 3/0 2000 м
[]
+17.6 +2.1 35 +17 +25 1016.1 954.6 +2.3 +19.8
21 20.05 СЗ 3 16 км слаб. дождь 9/9 1500 м
[]
+15.7 +6.7 55 +15 +16 1016.6 954.8
00 21.05 С 2 16 км {осадки} ясно +16.7 +4.1 43 +17 +21 1016.8 955.1 +2.3 +19.8 5
03 21.05 СЗ 2 16 км 10/0
[]
+13.1 +5.0 58 +13 +13 1017.6 956.1
06 21.05 З 2 16 км {осадки} 10/10 1500 м
[]
+9.3 +5.6 78 +8 +8 1018.2 956.6 +2.3 +19.8 0.5 23
09 21.05 Ю 1 16 км 10/0
[]
+5.3 +4.6 95 +5 +5 1018.8 956.9
12 21.05 З 2 16 км 10/10 1500 м
[]
+7.7 +5.4 85 +6 +6 1019.9 958.1 +4.9 +19.8
15 21.05 СВ 2 16 км 10/0
[]
+12.9 +7.0 67 +13 +16 1020.0 958.3
18 21.05 В 2 16 км 5/5 1500 м
[]
+16.7 +4.8 45 +17 +23 1019.8 958.1 +4.9 +16.7
21 21.05 СВ 3 16 км 9/9 1500 м
[]
+18.6 +2.9 35 +19 +20 1019.8 958.0
00 22.05 С 2 16 км {осадки} ясно +13.6 +8.9 73 +13 +17 1021.1 959.1 +4.9 +18.8 0.8
03 22.05 С 3 16 км ясно +12.7 +6.8 67 +12 +12 1021.5 959.7
06 22.05 СЗ 1 16 км ясно +5.4 +4.5 94 +5 +5 1022.5 960.4 +4.9 +18.8 22
09 22.05 С 1 16 км ясно +2.4 +2.0 97 +2 +2 1023.1 960.9
12 22.05 СВ 1 16 км ясно +3.6 +3.2 97 +3 +5 1024.3 961.8 +0.8 +18.8
15 22.05 Ю 2 16 км ясно +15.0 +4.9 51 +15 +22 1023.6 961.8
18 22.05 Ю 4 16 км ясно +19.8 -0.1 26 +20 +28 1022.6 960.7 +0.8 +20.0
21 22.05 Ю 6 16 км ясно +22.1 -2.1 20 +21 +26 комфорт 1021.1 959.2
00 23.05 Ю 5 16 км ясно +22.1 0.0 23 +21 +23 комфорт 1019.2 957.5 +0.8 +22.6
03 23.05 Ю 4 16 км 3/0
[]
+18.4 +1.5 32 +18 +19 1017.4 956.2
06 23.05 Ю 6 16 км 10/0
[]
+15.7 +0.8 36 +15 +15 1015.9 954.9 +0.8 +22.6 21
09 23.05 Ю 4 16 км 10/0 2000 м
[]
+14.7 +0.6 38 +14 +14 1013.8 953.0
12 23.05 Ю 6 16 км 10/0 2000 м
[]
+14.7 +5.2 53 +13 +13 1011.6 951.0 +14.1 +22.6
15 23.05 Ю 6 16 км 10/0 2000 м
[]
+15.4 +5.7 52 +14 +15 1009.2 948.5
18 23.05 Ю 8 16 км слаб. дождь 10/0 2000 м
[]
+15.5 +7.5 59 +14 +15 1006.1 945.5 +14.1 +17.7
21 23.05 ЮЗ 7 16 км 5/0
[]
+19.4 +6.6 43 +19 +21 1002.8 942.6
00 24.05 ЮЗ 7 16 км 10/0
[]
+20.7 +5.3 36 +21 +22 комфорт 1000.2 940.2 +14.1 +21.8
03 24.05 СЗ 2 16 км ясно +16.9 +6.5 50 +17 +18 999.2 939.1

 

Местоположение метеостанции Dubawnt Lake (Канада): широта 63.23 долгота -101.70 высота над уровнем моря 237 м.

В архиве по умолчанию представлена погода в Dubawnt Lake за последнюю неделю. Архивные данные за месяц целиком и за предыдущие месяцы, начиная с января 2011 года, Вы можете получить, выбрав интересующий диапазон дат из раскрывающегося списка и нажав кнопку "Ввод!".

Внимание! Время в таблицах - всемирное. Для получения местного времени необходимо прибавить поправку, которая в Dubawnt Lake равна -6 ч.

Смотрите также архив погоды в соседних городах и на ближайших метеорологических станциях:

Погода в Hanbury River ARS (Канада) (176 км)
Погода в Robertson Lake (Канада) (211 км)
Погода в Baker Lake Airport (Канада) (302 км)
Погода в Baker Lake Climate (Канада) (305 км)
Погода в Fort Reliance (aut) (Канада) (379 км)
Погода в Porter Lake (Канада) (387 км)
Погода в Back River MAPS (Канада) (402 км)
Погода в Lustel Ke A (Канада) (461 км)
Погода в Arviat Climate (Канада) (462 км)
Погода в Arviat (Канада) (462 км)

Пояснения к столбцам:

Ветер - указаны скорость ветра в м/с - средняя за 10 мин, порывы в срок и между сроками (в фигурных скобках) и направление, откуда дует ветер: С - северный, СВ - северо-восточный, В - восточный, ЮВ - юго-восточный, Ю - южный, ЮЗ - юго-западный, З - западный, СЗ - северо-западный.
Видимость - горизонтальная дальность видимости в метрах или километрах. При видимости от 1 до 10 км при отсутствии осадков обычно наблюдается дымка, при ухудшении видимости до 1 км и менее - туман. В сухую погоду видимость может ухудшаться дымом, пылью или мглою.
Явления - указаны атмосферные явления, наблюдавшиеся в срок или в последний час перед сроком; фигурными скобками обозначены явления, наблюдавшиеся между сроками (за 1-3 часа до срока); квадратными скобками обозначены град или гололедные отложения с указанием их диаметра в мм.
Облачность - указаны через наклонную черту общая и нижняя облачность в баллах и высота нижней границы облаков в метрах; квадратными скобками обозначены формы облаков: Ci - перистые, Cs - перисто-слоистые, Cc - перисто-кучевые, Ac - высококучевые, As - высокослоистые, Sc - слоисто-кучевые, Ns - слоисто-дождевые, Cu - кучевые, Cb - кучево-дождевые. Подробнее классификацию облаков см. в Атласе облаков (PDF).
T - Температура воздуха - температура, измеренная на высоте 2 м над землей.
Td - Температура точки росы - температура, при понижении до которой содержащийся в воздухе водяной пар достигнет насыщения.
f - Относительная влажность воздуха - влажноcть воздуха, измеренная на высоте 2 м над землей.
Te - Эффективная температура - температура, которую ощущает одетый по сезону человек в тени. Характеристика душности погоды. При расчете учитывается влияние влажности воздуха и скорости ветра на теплоощущения человека.
Tes - Эффективная температура на солнце - температура, которую ощущает человек, с поправкой на солнечный нагрев. Характеристика знойности погоды. Зависит от высоты солнца над горизонтом, облачности и скорости ветра. Ночью, в пасмурную погоду, а также при ветре 12 м/с и более поправка равна нулю.
P - Атмосферное давление - приведенное к уровню моря атмосферное давление.
Po - Атмосферное давление - измеренное на уровне метеостанции атмосферное давление.
Tmin - Минимальная температура - минимум температуры воздуха на высоте 2 м над землей.
Tmax - Максимальная температура - максимум температуры воздуха на высоте 2 м над землей.
R - Количество осадков - Количество выпавших осадков за период времени, мм. При наведении курсора мыши на число - период времени, за который выпало указанное количество осадков.
R24 - Количество осадков - Количество выпавших осадков за 24 часа, мм.
S - Снежный покров - Высота снежного покрова, см. При наведении курсора мыши на число - состояние снежного покрова и степень покрытия местности в баллах.